sat.trackr.live / text

‹ back to catalog

STARLINK-11626 [DTC]

NORAD 63556 · 2025-075J

PAYLOAD ACTIVE UNKNOWN

§ Identity

Operator
Country
US
Launch date
2025-04-13
Launch site
AFETR
Launch vehicle
Mass (kg)
RCS (m²)

Purposes: comms

External: N2YO · Heavens-Above · Gunter

§ Orbital elements

Epoch: 2026-09-19T17:47:48.511680Z

Period
91.67 min
Inclination
43.0000°
Eccentricity
0.0001800
Mean motion
15.70895159 rev/d
Perigee alt
355.1 km
Apogee alt
357.5 km
Semi-major
6,734.5 km
B*
1.1989e-3
RAAN
64.5043°
Arg perigee
257.1593°
Mean anomaly
102.9074°
Rev number
8,376

§ Raw data

STARLINK-11626 [DTC]1 63556U 25075J   26262.74153370  .00156683  00000+0  11989-2 0  99902 63556  43.0000  64.5043 0001800 257.1593 102.9074 15.70895159 83764

JSON: /api/v1/satellites/63556 · /tle

For live sub-satellite position, see the globe view (requires WebGL).

§ Visibility from observer

Set your observer location to see the next 7 days of passes ≥ 10°. The values pass through the URL so the page stays shareable.

No JS? Fill the form by hand. The geolocation button needs JavaScript.